User: anonymous   Login
Location: Caltech
(34.1382°N, 118.1253°W)
Time: 18:04:21
(UTC-07:00)
Language:

Iridium 12 - Orbit

View from above orbital plane
View from above orbital plane
View from above satellite
View from above satellite

Ground track
Ground track

The orbit data is extracted from the following two-line orbital elements,

1 24837U 97030B   14298.37110190  .00000841  00000-0  29311-3 0   408
2 24837 086.3995 033.8175 0002206 109.8703 315.9260 14.34219918908512
Epoch (UTC): 25 October 2014 08:54:23
Eccentricity: 0.0002206
inclination: 86.3995°
perigee height: 776 km
apogee height: 779 km
right ascension of ascending node: 33.8175°
argument of perigee: 109.8703°
revolutions per day: 14.34219918
mean anomaly at epoch: 315.9260°
orbit number at epoch: 90851

The dashed part of the orbit path shows where the satellite is in the earth's shadow,  

DLR